Location: Unspecified
(43.4354°N, 0.0000°E)
Time: 10:26:35
(UTC+00:00)

Transit 2A - Pass Details

Date: 21 June 2019
Orbit: 594 x 964 km, 66.7° (Epoch: 19 July)

Event Time Altitude Azimuth Distance (km) Brightness Sun altitude
Rises 09:43:36 0° 325° (NW) 3,435 9.1 55.3°
Reaches altitude 10° 09:46:14 10° 322° (NW) 2,438 8.4 55.8°
Maximum altitude 09:51:41 57° 245° (WSW) 898 6.9 56.6°
Drops below altitude 10° 09:56:33 10° 167° (SSE) 2,177 8.8 57.4°
Sets 09:58:47 0° 163° (SSE) 3,038 9.4 57.8°
